Regional Weather Roundup
Issued by NWS Jackson, KY

Home | Current Version | Previous Version | Text Only | Print | Product List | Glossary On
Versions: 1 2 3 4 5 6 7 8 9 10 11 12 13 14 15 16 17 18 19 20 21 22 23 24 25 26 27 28 29 30 31 32 33 34 35 36 37 38 39 40 41 42 43 44 45 46 47 48 49 50
000
ASUS43 KJKL 261110
RWRJKL

EAST KENTUCKY HOURLY WEATHER ROUNDUP
NATIONAL WEATHER SERVICE JACKSON KY
700 AM EDT SUN MAR 26 2017

NOTE: "FAIR" INDICATES FEW OR NO CLOUDS BELOW 12,000 FEET WITH
NO SIGNIFICANT WEATHER AND/OR OBSTRUCTIONS TO VISIBILITY.

* THESE REPORTS ARE NOT UNDER NWS QUALITY CONTROL AND MAY NOT
  REPORT WEATHER SUCH AS PRECIPITATION AND FOG.

KYZ079-080-083-085-087-088-110-112-115-119-120-261200
...EASTERN KENTUCKY...

CITY           SKY/WX    TMP DP  RH WIND       PRES   REMARKS
JACKSON        LGT RAIN  59  49  69 SW6       30.04R
LONDON         LGT RAIN  55  53  93 CALM      30.03R
SOMERSET*      LGT RAIN  55  55 100 S5        30.04R
MONTICELLO*    CLOUDY    58  56  93 NE8       30.03S
WILLIAMSBURG*  CLOUDY    55  55 100 S3        30.04R
MIDDLESBORO*   LGT RAIN  55  55 100 NE3       30.07S
HARLAN APT*    CLOUDY    57  52  82 CALM      30.07R
PIKE CO APT*   MOCLDY    61  47  59 S3        30.04R
BIG SANDY APT* CLOUDY    63  47  57 S7        30.04R
MOREHEAD APT*  CLOUDY    61  52  72 SW8       30.05R
ASHLAND*       CLOUDY    41  41 100 NW5       30.00R
$$

KYZ035-036-041-042-044-050-067-078-099-261200
...CENTRAL KENTUCKY...

CITY           SKY/WX    TMP DP  RH WIND       PRES   REMARKS
MT STERLING*   RAIN      55  55 100 SW3       30.03F
FLEMING/MASON* CLOUDY    56  53  87 W8        30.03R
DANVILLE*      LGT RAIN  54  54 100 S6        30.01F
LEXINGTON      LGT RAIN  56  54  93 S8        30.00S
FRANKFORT      CLOUDY    57  53  86 S7        29.98S
LOUISVILLE     CLOUDY    58  55  90 S9        29.96S
LEBANON*         N/A     55  55 100 SE9       29.99S
GLASGOW*       LGT RAIN N/A N/A N/A S5        29.97S
BOWLING GREEN  CLOUDY    59  56  89 S7        29.96R
$$

KYZ091>093-OHZ055-061-077-WVZ005-015-034-035-042-261200
...SOUTHERN OHIO/WEST VIRGINIA...

CITY           SKY/WX    TMP DP  RH WIND       PRES   REMARKS
COVINGTON      LGT RAIN  57  56  96 S7        29.98S
COLUMBUS       CLOUDY    61  49  64 SW3       29.97S
DAYTON         LGT RAIN  58  54  86 SW7       29.98S
WILMINGTON     CLOUDY    54  49  83 SW7       29.99R
HUNTINGTON     CLOUDY    62  45  53 SE5       30.00R
CHARLESTON     MOCLDY    56  47  71 CALM      30.03S
PINEVILLE*     CLOUDY    49  44  84 MISG      30.14R
BECKLEY        CLOUDY    55  45  68 SE9       30.10S
BLUEFIELD      MOCLDY    54  45  71 S8G18     30.14R
LOGAN CO APT*    N/A     61  46  59 VRB7G14   30.05R
$$

VAZ002-007-008-TNZ017-027-036-066-071-261200
...SOUTHWEST VIRGINIA/EAST TENNESSEE...

CITY           SKY/WX    TMP DP  RH WIND       PRES   REMARKS
WISE*          CLOUDY    59  45  58 CALM      30.10R
JONESVILLE*    LGT RAIN  57  55  94 W5        30.11R
ABINGDON*      CLOUDY    59  47  66 CALM      30.10R
BRISTOL        CLOUDY    61  49  64 S5        30.09R
MORRISTOWN*    CLOUDY    55  55 100 SW7       30.08R
SEVIERVILLE*   CLOUDY    55  55 100 CALM      30.06F
KNOXVILLE      CLOUDY    59  56  89 CALM      30.05R
LAFOLLETTE*    PTSUNNY   59  55  88 S10G17    30.08R
OAK RIDGE      CLOUDY    59  56  89 CALM      30.07R
CROSSVILLE     CLOUDY    57  53  86 S12G23    30.03F
NASHVILLE      CLOUDY    58  56  93 S10       29.97S
$$

...KEY TO REMARKS...
VSB - VISIBILITY IN MILES
WCI - WIND CHILL INDEX
HX  - HEAT INDEX

$$



USA.gov is the U.S. government's official web portal to all federal, state and local government web resources and services.